CW2285 Weather Reports


Display with metric or nautical units.
time (UTC)temp
F
wind
direction
speed
MPH
gust
MPH
rain 1hr
in
rain 24hr
in
rain mn
in
humidity
%
barometer
mb
20260906091002 90 276 2.0 5.0 0.00 0.00 0.00 31 1007.8
20260906090502 90 298 2.0 6.0 0.00 0.00 0.00 31 1007.7
20260906090002 90 300 2.0 5.0 0.00 0.00 0.00 31 1007.6
20260906085002 89 293 2.0 5.0 0.00 0.00 0.00 32 1007.6
20260906084502 89 318 1.0 3.0 0.00 0.00 0.00 32 1007.6
20260906084002 89 327 0.0 3.0 0.00 0.00 0.00 32 1007.7
20260906083502 89 277 0.0 3.0 0.00 0.00 0.00 32 1007.6
20260906082502 90 305 0.0 3.0 0.00 0.00 0.00 32 1007.7
20260906082002 90 306 2.0 8.0 0.00 0.00 0.00 31 1007.8
20260906081502 90 318 2.0 6.0 0.00 0.00 0.00 31 1007.8
20260906081002 90 304 1.0 6.0 0.00 0.00 0.00 31 1007.8
20260906080501 90 291 2.0 5.0 0.00 0.00 0.00 31 1007.8
20260906080002 90 303 2.0 5.0 0.00 0.00 0.00 30 1007.8
20260906075502 90 277 2.0 7.0 0.00 0.00 0.00 30 1007.8
20260906075001 90 297 1.0 5.0 0.00 0.00 0.00 30 1007.7
20260906074503 90 293 2.0 7.0 0.00 0.00 0.00 30 1007.6
20260906074002 90 291 2.0 8.0 0.00 0.00 0.00 30 1007.6
20260906073502 90 303 2.0 7.0 0.00 0.00 0.00 30 1007.5
20260906073002 90 307 3.0 9.0 0.00 0.00 0.00 30 1007.7
20260906072002 90 317 3.0 7.0 0.00 0.00 0.00 29 1007.4
20260906071502 90 304 3.0 8.0 0.00 0.00 0.00 29 1007.4
20260906070502 91 299 3.0 10.0 0.00 0.00 0.00 29 1007.4
20260906065503 90 294 4.0 8.0 0.00 0.00 0.00 29 1007.2
20260906064502 90 284 2.0 7.0 0.00 0.00 0.00 29 1007.2
20260906064002 90 295 2.0 5.0 0.00 0.00 0.00 29 1007.2
20260906063502 91 316 1.0 5.0 0.00 0.00 0.00 29 1007.2
20260906063002 91 297 2.0 5.0 0.00 0.00 0.00 29 1007.3
20260906062502 91 291 1.0 6.0 0.00 0.00 0.00 29 1007.3
20260906062002 91 299 2.0 8.0 0.00 0.00 0.00 29 1007.4
20260906061502 91 297 3.0 8.0 0.00 0.00 0.00 29 1007.4
20260906061002 91 292 2.0 9.0 0.00 0.00 0.00 30 1007.4
20260906060502 91 305 3.0 7.0 0.00 0.00 0.00 30 1007.3
20260906055502 91 328 2.0 3.0 0.00 0.00 0.00 29 1007.3
20260906055002 91 311 2.0 3.0 0.00 0.00 0.00 29 1007.3
20260906054501 91 306 3.0 9.0 0.00 0.00 0.00 29 1007.3
20260906054001 91 291 2.0 7.0 0.00 0.00 0.00 29 1007.3
20260906053502 91 298 3.0 6.0 0.00 0.00 0.00 29 1007.2
20260906052503 91 317 3.0 7.0 0.00 0.00 0.00 28 1007.2
20260906052002 91 322 3.0 5.0 0.00 0.00 0.00 28 1007.1
20260906051002 91 324 2.0 8.0 0.00 0.00 0.00 28 1007.3
20260906050502 92 327 2.0 7.0 0.00 0.00 0.00 28 1007.3
20260906050002 92 325 2.0 5.0 0.00 0.00 0.00 28 1007.4
20260906045502 92 309 3.0 9.0 0.00 0.00 0.00 28 1007.4
20260906045002 92 306 3.0 10.0 0.00 0.00 0.00 28 1007.3
20260906044002 92 306 3.0 8.0 0.00 0.00 0.00 28 1007.3
20260906043502 92 302 3.0 9.0 0.00 0.00 0.00 27 1007.3
20260906043002 92 318 3.0 10.0 0.00 0.00 0.00 28 1007.3
20260906042001 92 294 3.0 9.0 0.00 0.00 0.00 28 1007.3
20260906041002 92 291 3.0 7.0 0.00 0.00 0.00 28 1007.1
20260906040502 93 283 3.0 8.0 0.00 0.00 0.00 28 1007.1
20260906040002 93 305 3.0 8.0 0.00 0.00 0.00 28 1007.0
20260906035503 93 308 3.0 10.0 0.00 0.00 0.00 29 1006.8
20260906035002 93 287 2.0 7.0 0.00 0.00 0.00 28 1006.8
20260906034501 93 311 2.0 7.0 0.00 0.00 0.00 28 1006.8
20260906034002 93 301 5.0 10.0 0.00 0.00 0.00 28 1006.7
20260906033502 93 321 3.0 10.0 0.00 0.00 0.00 28 1006.6
20260906033002 93 299 3.0 12.0 0.00 0.00 0.00 28 1006.7
20260906032502 93 315 2.0 5.0 0.00 0.00 0.00 28 1006.7
20260906031502 93 283 1.0 9.0 0.00 0.00 0.00 28 1006.6
20260906031002 94 11 3.0 6.0 0.00 0.00 0.00 25 1006.6
20260906030502 94 104 3.0 9.0 0.00 0.00 0.00 24 1006.5
20260906030002 94 63 1.0 6.0 0.00 0.00 0.00 22 1006.5
20260906025502 94 73 4.0 7.0 0.00 0.00 0.00 22 1006.5
20260906024002 95 91 0.0 1.0 0.00 0.00 0.00 21 1006.4
20260906023502 95 90 0.0 3.0 0.00 0.00 0.00 22 1006.4
20260906023002 95 64 2.0 3.0 0.00 0.00 0.00 21 1006.3
20260906022501 95 55 2.0 5.0 0.00 0.00 0.00 21 1006.3
20260906022002 95 95 2.0 5.0 0.00 0.00 0.00 21 1006.3
20260906021502 95 73 4.0 7.0 0.00 0.00 0.00 21 1006.3
20260906021002 95 78 5.0 8.0 0.00 0.00 0.00 21 1006.3
20260906020502 96 48 2.0 3.0 0.00 0.00 0.00 21 1006.3
20260906020002 96 41 3.0 5.0 0.00 0.00 0.00 21 1006.3
20260906015502 96 78 2.0 5.0 0.00 0.00 0.00 21 1006.3
20260906015003 96 71 3.0 7.0 0.00 0.00 0.00 20 1006.3
20260906013502 98 286 2.0 5.0 0.00 0.00 0.00 23 1006.3
20260906013002 98 83 2.0 7.0 0.00 0.00 0.00 20 1006.3
20260906012502 98 105 3.0 8.0 0.00 0.00 0.00 18 1006.4
20260906012002 98 104 4.0 7.0 0.00 0.00 0.00 18 1006.4
20260906011502 98 112 5.0 7.0 0.00 0.00 0.00 18 1006.5
20260906011002 99 145 2.0 6.0 0.00 0.00 0.00 18 1006.4
20260906010502 99 95 4.0 7.0 0.00 0.00 0.00 18 1006.4
20260906010002 99 104 4.0 7.0 0.00 0.00 0.00 18 1006.5
20260906005503 99 113 5.0 8.0 0.00 0.00 0.00 17 1006.5
20260906005002 99 105 5.0 8.0 0.00 0.00 0.00 17 1006.4
20260906004502 98 101 4.0 10.0 0.00 0.00 0.00 17 1006.5
20260906004002 99 140 4.0 8.0 0.00 0.00 0.00 17 1006.4
20260906003502 99 91 6.0 9.0 0.00 0.00 0.00 17 1006.3
20260906003002 99 103 5.0 8.0 0.00 0.00 0.00 18 1006.3
20260906002502 98 111 6.0 9.0 0.00 0.00 0.00 17 1006.4
20260906002002 99 105 7.0 10.0 0.00 0.00 0.00 17 1006.4
20260906001503 99 111 6.0 9.0 0.00 0.00 0.00 17 1006.5
20260906001001 98 131 3.0 8.0 0.00 0.00 0.00 17 1006.6
20260906000502 98 128 5.0 12.0 0.00 0.00 0.00 17 1006.6
20260905235503 97 144 5.0 10.0 0.00 0.00 0.00 17 1006.7
20260905235002 97 137 4.0 10.0 0.00 0.00 0.00 17 1006.8
20260905234502 98 142 4.0 8.0 0.00 0.00 0.00 17 1006.7
20260905232502 99 107 6.0 10.0 0.00 0.00 0.00 17 1006.9
20260905232002 99 110 5.0 8.0 0.00 0.00 0.00 16 1006.9
20260905231502 100 119 5.0 9.0 0.00 0.00 0.00 16 1006.9
20260905231002 99 112 5.0 8.0 0.00 0.00 0.00 16 1006.9
20260905230502 98 110 7.0 10.0 0.00 0.00 0.00 16 1006.9
20260905230002 98 125 6.0 10.0 0.00 0.00 0.00 16 1006.9
20260905225002 98 121 7.0 12.0 0.00 0.00 0.00 16 1007.0
20260905224502 99 127 8.0 14.0 0.00 0.00 0.00 16 1007.2
20260905224002 99 144 5.0 10.0 0.00 0.00 0.00 16 1007.2
20260905223502 99 126 5.0 9.0 0.00 0.00 0.00 16 1007.2
20260905223001 100 134 7.0 12.0 0.00 0.00 0.00 16 1007.3
20260905222501 101 105 6.0 10.0 0.00 0.00 0.00 15 1007.4
20260905222001 101 114 5.0 10.0 0.00 0.00 0.00 16 1007.4
20260905221502 100 106 8.0 14.0 0.00 0.00 0.00 15 1007.4
20260905221002 100 123 3.0 9.0 0.00 0.00 0.00 15 1007.4
20260905220502 101 97 6.0 12.0 0.00 0.00 0.00 15 1007.4
20260905220002 101 103 9.0 13.0 0.00 0.00 0.00 15 1007.4
20260905215502 101 94 6.0 12.0 0.00 0.00 0.00 15 1007.5
20260905215002 101 123 5.0 10.0 0.00 0.00 0.00 15 1007.7
20260905214502 101 133 8.0 13.0 0.00 0.00 0.00 15 1007.7
20260905214002 101 103 5.0 10.0 0.00 0.00 0.00 14 1007.8
20260905213503 100 113 7.0 12.0 0.00 0.00 0.00 15 1007.9
20260905211502 100 116 6.0 14.0 0.00 0.00 0.00 16 1008.0
20260905211003 100 109 8.0 14.0 0.00 0.00 0.00 15 1008.0
20260905210502 100 155 5.0 12.0 0.00 0.00 0.00 16 1008.0
20260905210003 101 97 8.0 13.0 0.00 0.00 0.00 15 1008.0
20260905205502 100 104 5.0 10.0 0.00 0.00 0.00 15 1008.1
20260905205003 100 138 5.0 10.0 0.00 0.00 0.00 15 1008.2
20260905204502 100 116 7.0 10.0 0.00 0.00 0.00 14 1008.3
20260905204002 101 96 9.0 15.0 0.00 0.00 0.00 14 1008.3
20260905203502 100 137 4.0 8.0 0.00 0.00 0.00 13 1008.4
20260905203003 99 110 5.0 12.0 0.00 0.00 0.00 14 1008.4
20260905202502 100 108 9.0 14.0 0.00 0.00 0.00 13 1008.4
20260905201502 100 118 5.0 10.0 0.00 0.00 0.00 12 1008.4
20260905201002 100 97 7.0 12.0 0.00 0.00 0.00 12 1008.4
20260905200002 100 130 8.0 12.0 0.00 0.00 0.00 12 1008.6
20260905195502 100 90 6.0 12.0 0.00 0.00 0.00 13 1008.7
20260905195002 100 103 5.0 10.0 0.00 0.00 0.00 14 1008.7
20260905194502 99 119 6.0 10.0 0.00 0.00 0.00 13 1008.7
20260905194001 98 196 5.0 9.0 0.00 0.00 0.00 13 1008.9
20260905193502 98 129 3.0 8.0 0.00 0.00 0.00 14 1008.9
20260905193002 98 116 4.0 10.0 0.00 0.00 0.00 12 1009.0
20260905192502 98 133 4.0 6.0 0.00 0.00 0.00 12 1009.0
20260905191502 98 104 6.0 9.0 0.00 0.00 0.00 12 1009.2
20260905190503 97 121 2.0 7.0 0.00 0.00 0.00 12 1009.4
20260905190002 97 78 5.0 9.0 0.00 0.00 0.00 12 1009.5
20260905185502 97 143 3.0 6.0 0.00 0.00 0.00 14 1009.5
20260905185002 96 184 3.0 6.0 0.00 0.00 0.00 15 1009.5
20260905184502 96 142 2.0 7.0 0.00 0.00 0.00 13 1009.5
20260905184002 95 128 3.0 9.0 0.00 0.00 0.00 13 1009.5
20260905183502 94 103 3.0 8.0 0.00 0.00 0.00 13 1009.5
20260905183002 94 136 3.0 5.0 0.00 0.00 0.00 13 1009.5
20260905182502 94 151 3.0 8.0 0.00 0.00 0.00 15 1009.6
20260905182002 94 143 3.0 6.0 0.00 0.00 0.00 15 1009.6
20260905181502 93 156 1.0 5.0 0.00 0.00 0.00 15 1009.7
20260905181002 93 186 3.0 5.0 0.00 0.00 0.00 16 1009.6
20260905180502 93 163 1.0 5.0 0.00 0.00 0.00 18 1009.8
20260905175502 92 169 2.0 3.0 0.00 0.00 0.00 17 1009.7
20260905175002 92 171 2.0 3.0 0.00 0.00 0.00 18 1009.8
20260905174502 92 165 1.0 5.0 0.00 0.00 0.00 19 1009.7
20260905174002 91 194 2.0 5.0 0.00 0.00 0.00 19 1009.6
20260905173501 91 185 2.0 5.0 0.00 0.00 0.00 21 1009.5
20260905173001 91 199 3.0 5.0 0.00 0.00 0.00 20 1009.5
20260905172002 91 238 0.0 3.0 0.00 0.00 0.00 18 1009.5
20260905171502 91 228 3.0 3.0 0.00 0.00 0.00 18 1009.5
20260905171002 90 223 2.0 3.0 0.00 0.00 0.00 21 1009.5
20260905170002 90 208 2.0 5.0 0.00 0.00 0.00 19 1009.5
20260905165501 90 235 2.0 5.0 0.00 0.00 0.00 20 1009.5
20260905164502 91 226 3.0 6.0 0.00 0.00 0.00 18 1009.5
20260905164002 91 249 4.0 8.0 0.00 0.00 0.00 16 1009.5
20260905163502 91 215 3.0 8.0 0.00 0.00 0.00 17 1009.5
20260905163002 91 224 5.0 9.0 0.00 0.00 0.00 18 1009.5
20260905162502 90 170 3.0 8.0 0.00 0.00 0.00 16 1009.5
20260905162002 90 223 5.0 9.0 0.00 0.00 0.00 18 1009.5
20260905161502 90 236 7.0 12.0 0.00 0.00 0.00 17 1009.3
20260905161002 90 233 5.0 9.0 0.00 0.00 0.00 16 1009.3
20260905155502 90 280 5.0 9.0 0.00 0.00 0.00 16 1009.1
20260905155001 89 279 3.0 8.0 0.00 0.00 0.00 17 1009.1
20260905154502 89 282 5.0 9.0 0.00 0.00 0.00 17 1009.1
20260905153502 89 308 2.0 8.0 0.00 0.00 0.00 17 1009.0
20260905153002 88 305 3.0 7.0 0.00 0.00 0.00 17 1009.0
20260905152502 88 296 4.0 9.0 0.00 0.00 0.00 17 1009.0
20260905152002 87 288 3.0 9.0 0.00 0.00 0.00 18 1009.0
20260905151003 86 301 3.0 7.0 0.00 0.00 0.00 18 1008.9
20260905150002 86 314 1.0 3.0 0.00 0.00 0.00 19 1008.9
20260905145502 86 306 1.0 8.0 0.00 0.00 0.00 19 1008.9
20260905145001 85 296 2.0 3.0 0.00 0.00 0.00 19 1008.9
20260905144502 85 326 2.0 10.0 0.00 0.00 0.00 19 1008.9
20260905144002 84 292 3.0 8.0 0.00 0.00 0.00 19 1008.8
20260905143502 84 264 1.0 8.0 0.00 0.00 0.00 20 1008.8
20260905142002 83 283 2.0 6.0 0.00 0.00 0.00 20 1008.6
20260905141502 83 297 4.0 10.0 0.00 0.00 0.00 20 1008.6
20260905141002 82 302 3.0 8.0 0.00 0.00 0.00 21 1008.5
20260905140502 82 304 2.0 7.0 0.00 0.00 0.00 21 1008.5
20260905140002 82 301 2.0 9.0 0.00 0.00 0.00 21 1008.4
20260905135502 81 309 3.0 8.0 0.00 0.00 0.00 22 1008.4
20260905135002 81 294 5.0 10.0 0.00 0.00 0.00 21 1008.4
20260905134501 81 305 5.0 12.0 0.00 0.00 0.00 22 1008.3
20260905134001 80 316 3.0 8.0 0.00 0.00 0.00 22 1008.3
20260905133501 80 302 2.0 5.0 0.00 0.00 0.00 22 1008.4
20260905133002 81 276 2.0 5.0 0.00 0.00 0.00 22 1008.4
20260905132502 81 56 1.0 3.0 0.00 0.00 0.00 22 1008.5
20260905132002 81 144 1.0 3.0 0.00 0.00 0.00 22 1008.4
20260905131002 81 279 2.0 8.0 0.00 0.00 0.00 22 1008.2
20260905130503 82 275 3.0 6.0 0.00 0.00 0.00 21 1008.0
20260905130002 82 286 3.0 7.0 0.00 0.00 0.00 22 1008.0
20260905125502 81 302 3.0 12.0 0.00 0.00 0.00 22 1008.0
20260905125002 81 300 1.0 7.0 0.00 0.00 0.00 22 1007.9
20260905124503 81 303 4.0 9.0 0.00 0.00 0.00 22 1007.9
20260905124002 81 278 3.0 9.0 0.00 0.00 0.00 23 1007.7
20260905123502 82 297 5.0 12.0 0.00 0.00 0.00 23 1007.6
20260905123002 81 299 6.0 12.0 0.00 0.00 0.00 23 1007.5
20260905121502 81 298 5.0 12.0 0.00 0.00 0.00 24 1007.5
20260905121001 81 298 3.0 9.0 0.00 0.00 0.00 25 1007.5
20260905120502 81 290 1.0 8.0 0.00 0.00 0.00 25 1007.5
20260905120002 81 296 3.0 9.0 0.00 0.00 0.00 25 1007.4
20260905115502 81 299 1.0 5.0 0.00 0.00 0.00 25 1007.4
20260905115002 81 318 2.0 8.0 0.00 0.00 0.00 25 1007.4
20260905114502 81 305 3.0 10.0 0.00 0.00 0.00 24 1007.4
20260905114002 81 285 2.0 7.0 0.00 0.00 0.00 24 1007.4
20260905113002 81 310 2.0 8.0 0.00 0.00 0.00 24 1007.4
20260905112502 81 297 3.0 10.0 0.00 0.00 0.00 25 1007.4
20260905112002 81 300 3.0 6.0 0.00 0.00 0.00 24 1007.4
20260905111502 82 291 2.0 12.0 0.00 0.00 0.00 24 1007.4
20260905111002 82 305 4.0 10.0 0.00 0.00 0.00 24 1007.4
20260905110002 82 293 2.0 8.0 0.00 0.00 0.00 23 1007.5
20260905105502 82 312 4.0 12.0 0.00 0.00 0.00 23 1007.5
20260905104502 81 294 5.0 9.0 0.00 0.00 0.00 24 1007.4
20260905104002 81 304 5.0 9.0 0.00 0.00 0.00 24 1007.4
20260905103502 81 304 3.0 10.0 0.00 0.00 0.00 25 1007.4
20260905103002 81 308 3.0 9.0 0.00 0.00 0.00 25 1007.4
20260905102502 81 300 4.0 12.0 0.00 0.00 0.00 25 1007.4
20260905102002 81 313 3.0 10.0 0.00 0.00 0.00 25 1007.4
20260905101502 81 295 1.0 8.0 0.00 0.00 0.00 25 1007.4
20260905101003 82 304 4.0 10.0 0.00 0.00 0.00 24 1007.4
20260905100502 82 319 3.0 10.0 0.00 0.00 0.00 24 1007.4
20260905095002 82 300 6.0 12.0 0.00 0.00 0.00 23 1007.4
20260905094502 82 288 7.0 13.0 0.00 0.00 0.00 24 1007.4
20260905094003 82 298 5.0 15.0 0.00 0.00 0.00 24 1007.4
20260905093503 82 299 5.0 14.0 0.00 0.00 0.00 24 1007.4
20260905093002 82 295 3.0 13.0 0.00 0.00 0.00 24 1007.4
20260905092002 82 302 6.0 12.0 0.00 0.00 0.00 24 1007.5
20260905091502 82 299 3.0 9.0 0.00 0.00 0.00 24 1007.5